Location: ????????
(37.6846°N, 24.0673°E)
Time: 14:56:07
(UTC+00:00)

IRS-1D - Pass Details

Date: 14 July 2020
Orbit: 739 x 817 km, 98.6° (Epoch: 03 August)

Event Time Altitude Azimuth Distance (km) Brightness Sun altitude
Rises 00:40:44 0° 11° (NNE) 3,185 7.9 -23.2°
Reaches altitude 10° 00:43:01 10° 11° (N) 2,256 6.9 -22.9°
Maximum altitude 00:47:58 81° 284° (WNW) 754 3.3 -22.4°
Enters shadow 00:49:01 56° 209° (SSW) 879 3.4 -22.2°
